Location: Home
(42.5358°N, 72.7383°W)
Time: 09:29:13
(UTC-05:00)

S-56A Canister/Altair - Pass Details

Date: 04 December 2021
Orbit: 634 x 2499 km, 38.9° (Epoch: 22 January)

Event Time Altitude Azimuth Distance (km) Brightness Sun altitude
Rises 04:12:35 0° 277° (W) 3,820 - -30.9°
Reaches altitude 10° 04:15:49 10° 269° (W) 2,604 - -30.3°
Maximum altitude 04:21:04 35° 205° (SSW) 1,194 - -29.3°
Exits shadow 04:22:43 27° 167° (SSE) 1,330 8.8 -29.0°
Drops below altitude 10° 04:25:16 10° 139° (SE) 2,064 10.3 -28.6°
Sets 04:27:33 0° 130° (SE) 2,921 11.3 -28.2°
